Location: Clarion
(42.7316°N, 93.7330°W)
Time: 04:34:20
(UTC+00:00)

Daily predictions for brighter satellites

Satellite Brightness Start Highest point End
(mag) Time Altitude Azimuth Time Altitude Azimuth Time Altitude Azimuth
Cosmos 2369 Rocket 4.1 01:27:49 10° NNE 01:30:37 14° NE 01:33:25 10° ENE
Terra 3.3 01:28:37 10° ESE 01:32:01 20° ENE 01:35:24 10° NNE
Cosmos 2341 Rocket 4.1 01:26:27 10° S 01:32:36 63° E 01:38:50 10° NNE
NOSS 3-4 (A) 3.4 01:28:00 10° SW 01:33:13 77° NW 01:38:56 10° NE
NOSS 3-4 (C) 3.4 01:28:30 10° SW 01:33:45 78° NW 01:39:30 10° NE
NOSS 0 Rocket 4.4 01:33:00 10° SW 01:39:12 69° WNW 01:45:26 10° NNE
Cosmos 2366 rocket 4.0 01:33:19 10° S 01:39:23 66° E 01:45:28 10° NNE
Cosmos 2242 Rocket 4.0 01:42:25 10° N 01:46:40 43° ENE 01:50:51 10° SSE
Cosmos 2278 Rocket 2.4 01:42:53 10° NNW 01:48:35 78° WSW 01:54:13 10° SSE
Cosmos 1048 Rocket 4.1 01:43:27 10° NNW 01:48:37 83° WSW 01:53:49 10° SSE
Cosmos 1733 Rocket 3.2 01:44:25 10° S 01:48:38 51° E 01:52:54 10° NNE
CZ-4B R/B 4.1 01:43:51 10° SE 01:48:47 33° ENE 01:53:47 10° N
Cosmos 1025 Rocket 4.4 01:46:19 10° NNE 01:49:32 20° ENE 01:52:18 12° ESE
Resurs 01 Rocket 3.4 01:45:38 10° SSW 01:49:35 33° W 01:53:34 10° NNW
Gblst 52 Del rocket 4.4 01:45:21 10° SW 01:51:08 81° SE 01:57:43 10° ENE
CZ-4 R/B 1.3 01:54:54 10° SSE 01:58:34 57° ENE 02:02:11 10° N
USA 32 4.0 01:55:57 10° S 02:01:06 67° E 02:06:19 10° N
OAO 3 Rocket 4.1 02:01:08 10° WSW 02:05:14 31° S 02:08:14 16° SE
Aureole 3 4.2 02:00:26 10° N 02:05:38 65° E 02:11:44 10° SSE
NOSS 8 (A) 4.2 02:03:19 10° NNW 02:06:12 60° NE 02:08:21 19° SE
CSL-04 Debris 4.1 02:01:25 10° SSE 02:06:47 87° ENE 02:12:12 10° NNW
SL-08 R/B 4.0 02:05:03 10° NNE 02:09:32 34° E 02:13:58 10° SSE
CZ-4B R/B 3.7 02:06:50 10° S 02:10:32 83° WSW 02:14:24 10° NNW
Cosmos 614 Rocket 3.9 02:06:48 10° NNW 02:11:58 84° ENE 02:16:51 11° SSE
Cosmos 1125 Rocket 3.7 02:07:34 10° SSW 02:12:47 79° WNW 02:18:04 10° NNE
BREEZE-M DEB (TANK) 4.0 02:11:49 10° NW 02:13:42 21° NNE 02:16:04 10° ENE
Cosmos 1821 Rocket 4.0 02:08:53 10° S 02:15:09 83° E 02:21:32 10° N
Cosmos 2292 Rocket 4.1 02:12:36 10° N 02:16:20 31° ENE 02:17:47 23° ESE
SL-16 R/B 2.4 02:11:36 10° S 02:16:57 46° ESE 02:22:21 10° NE
MetOp-B 4.3 02:13:56 13° SSE 02:18:35 58° ENE 02:23:50 10° N
Cosmos 2218 Rocket 4.4 02:13:47 10° SSW 02:19:52 66° W 02:26:01 10° N
ERS-1 Rocket 3.0 02:15:33 13° SSE 02:20:02 66° ENE 02:25:01 10° N
Cosmos 1812 0.7 02:20:13 68° NNW 02:20:13 68° NNW 02:21:44 10° N
TIMED 4.4 02:16:57 10° NNW 02:21:13 82° ENE 02:24:21 18° SSE
Cosmos 2298 Rocket 4.5 02:17:21 10° S 02:22:12 38° ESE 02:27:06 10° NE
OAO 2 Rocket 4.1 02:21:47 10° WSW 02:26:25 34° S 02:28:40 23° SE
USA 234 3.2 02:21:51 10° NE 02:28:25 73° SE 02:34:57 10° SW
USA 59 Rocket -0.1 02:25:46 10° NW 02:29:21 78° SW 02:32:15 22° SSE
Cosmos 2221 Rocket 4.2 02:25:47 10° N 02:29:54 37° ENE 02:31:36 27° ESE
Helios 1A Rocket 3.2 02:28:49 10° N 02:31:57 50° WNW 02:35:02 10° SSW
PAYLOAD B 4.2 02:27:33 12° SSE 02:32:46 88° WSW 02:38:17 10° NNW
Cosmos 1000 Rocket 4.5 02:28:42 10° N 02:34:48 62° E 02:39:10 19° SSE
SL-8 R/B 3.8 02:30:47 10° WSW 02:35:31 76° NNW 02:40:15 10° ENE
Cosmos 1346 Rocket 2.5 02:33:07 10° N 02:36:42 65° ENE 02:38:04 34° SSE
Cosmos 1400 Rocket 3.7 02:33:55 10° SSW 02:37:21 43° WNW 02:40:50 10° N
Meteor 2-16 Rocket 4.4 02:32:38 10° N 02:38:46 72° E 02:43:19 19° SSE
Cosmos 1656 Rocket 3.6 02:35:01 10° NNW 02:40:31 84° ENE 02:43:52 25° SSE
Geosat 3.9 02:37:46 10° NNE 02:42:44 61° ESE 02:47:38 10° SSW
Dummy Sat-02 4.4 02:42:59 28° S 02:44:47 81° E 02:48:23 10° N
Spot 2 Rocket 3.7 02:42:40 29° SE 02:45:00 54° ENE 02:49:54 10° N
Cosmos 2237 Rocket 4.1 02:40:35 10° WSW 02:45:37 32° NW 02:50:42 10° N
Meteor 1-31 Rocket 4.4 02:42:59 10° SSW 02:46:04 28° W 02:49:09 10° NW
Cosmos 44 3.5 02:42:27 10° SW 02:47:27 81° WNW 02:52:46 10° NNE
HBTSS-SV1 4.5 02:44:42 10° WSW 02:49:04 60° S 02:50:25 40° ESE
SL-4 R/B 3.5 02:45:45 10° SSW 02:47:05 19° S 02:47:05 19° S
Cosmos 2285 Rocket 3.9 02:44:19 10° S 02:50:38 71° ESE 02:56:57 10° NNE
BREEZE-M DEB (TANK) 3.6 02:47:43 10° WNW 02:53:46 51° SW 02:54:31 41° S
Cosmos 1869 3.2 02:54:50 49° E 02:54:50 49° E 02:58:06 10° NNE
Okean-O 2.6 02:53:57 41° SE 02:55:17 61° ENE 02:59:36 10° N
Cosmos 1674 Rocket 3.8 02:51:39 10° NNW 02:55:57 65° W 02:58:33 23° S
Cosmos 1908 Rocket 3.5 02:59:30 24° S 03:02:05 86° W 03:06:25 10° N
Okean O Rocket 1.4 03:03:31 47° SSE 03:04:44 81° ENE 03:09:04 10° N
Cosmos 2150 Rocket 4.0 02:59:41 10° SSW 03:04:49 83° WNW 03:10:03 10° NNE
Gbstr 26 Del rocket 3.4 02:59:47 10° SSW 03:04:53 47° SE 03:04:53 47° SE
CZ-4B R/B 3.8 03:05:51 29° NE 03:05:51 29° NE 03:08:13 10° N
SL-08 R/B 4.4 03:00:08 10° N 03:06:23 78° E 03:09:30 32° SSE
NOSS 2-1 (D) 4.5 03:04:29 10° NW 03:07:55 38° WSW 03:09:27 28° SSW
Terra 2.7 03:06:02 18° SSW 03:09:11 46° W 03:13:43 10° NNW
Cosmos 2297 3.8 03:04:09 10° NNW 03:09:51 61° ENE 03:11:35 42° ESE
Cosmos 1782 Rocket 3.5 03:12:04 59° ESE 03:12:11 59° E 03:16:25 10° NNE
NOSS 2-1 (E) 4.2 03:11:41 10° NW 03:15:10 42° WSW 03:16:08 36° SSW
Cosmos 2369 Rocket 2.1 03:10:01 10° NNW 03:15:37 75° ENE 03:17:12 48° SE
BREEZE-M DEB (TANK) 4.3 03:19:03 10° NW 03:21:45 34° NNE 03:24:44 19° ENE
SPOT 3 Rocket 3.6 03:22:47 53° ESE 03:23:37 61° ENE 03:28:43 10° N
USA 245 3.8 03:23:54 62° ESE 03:24:32 70° ENE 03:29:54 10° N
NOSS 3-1 (C) 4.1 03:19:06 10° NNW 03:26:18 74° NE 03:29:48 40° SE
Cosmos 1025 Rocket 4.5 03:23:12 10° NNW 03:27:02 33° W 03:29:03 22° SW
Cosmos 1943 3.1 03:27:20 49° S 03:28:45 67° ESE 03:34:23 10° NNE
ASTEX 1 3.9 03:26:48 32° SSW 03:28:53 55° W 03:33:44 10° NNW
CZ-4B R/B 4.5 03:25:11 15° SSW 03:29:13 37° W 03:34:26 10° NNW
Cosmos 405 Rocket 4.2 03:29:58 10° N 03:31:19 24° N 03:31:19 24° N
Cosmos 1934 Rocket 4.3 03:30:37 18° SSW 03:35:21 67° W 03:41:32 10° N
Cosmos 1300 Rocket 4.1 03:39:49 44° WSW 03:40:42 52° W 03:44:55 10° N
IRS-1C Rocket 4.0 03:42:10 69° ESE 03:42:33 72° ENE 03:47:50 10° N
Cosmos 2263 4.1 03:39:28 10° NNW 03:45:09 85° WSW 03:45:54 68° S
Cosmos 1023 Rocket 4.3 03:49:51 10° NNW 03:54:52 84° WNW 03:54:52 84° WNW
Cosmos 1153 Rocket 4.5 03:55:55 59° E 03:55:57 59° E 04:02:06 10° NNE
Cosmos 2058 4.1 03:56:24 10° N 03:58:47 36° N 03:58:47 36° N
SJ 16-02 3.2 03:56:57 10° N 03:59:08 20° NE 03:59:08 20° NE
Cosmos 1447 Rocket 4.3 03:54:29 10° N 04:00:46 76° E 04:01:13 72° ESE
SL-16 R/B 4.1 03:56:22 10° WSW 04:01:14 29° NW 04:06:07 10° N
BREEZE-M DEB (TANK) 4.5 03:57:07 10° WSW 04:01:57 70° NNW 04:23:13 10° ENE
Meteor 2-17 Rocket 4.4 04:03:04 10° N 04:09:08 67° ENE 04:09:08 67° ENE
USA 234 4.4 04:05:05 10° NE 04:11:09 42° NNW 04:17:13 10° W
Ariane Rocket 3.4 04:16:34 56° W 04:16:34 56° W 04:21:15 10° NNW
CZ-4B R/B 4.1 04:16:59 45° W 04:16:59 45° W 04:21:14 10° NNW
NOSS 3-1 (A) 4.0 04:18:14 10° NW 04:25:34 79° NE 04:27:01 64° ESE
Cosmos 921 Rocket 4.3 04:21:24 10° NNW 04:24:17 38° NW 04:24:17 38° NW
COSMOS 2455 2.9 04:24:27 10° NNW 04:30:05 74° NNE 04:30:05 74° NNE
Cosmos 2173 Rocket 4.1 04:37:53 63° NE 04:37:53 63° NE 04:43:05 10° N
ATLAS 5 CENTAUR R/B 3.2 04:37:22 10° NNW 04:39:49 31° N 04:39:49 31° N
Cosmos 407 Rocket 4.4 04:44:21 10° NNW 04:47:57 44° NW 04:47:57 44° NW
Cosmos 2369 Rocket 4.3 04:55:48 10° WNW 04:58:53 15° W 04:58:58 15° W
Cosmos 2100 Rocket 4.2 05:00:01 66° NW 05:00:01 66° NW 05:05:36 10° N
Cosmos 2251 Rocket 4.4 04:55:49 10° NNW 04:59:33 46° N 04:59:33 46° N
Cosmos 1697 Rocket 4.2 05:04:11 10° N 05:08:28 29° NE 05:08:28 29° NE
Meteor 2-3 Rocket 4.5 05:07:17 10° NNW 05:11:24 49° NNW 05:11:24 49° NNW
SeaSat 1 3.8 05:20:40 36° NNW 05:20:40 36° NNW 05:23:35 10° NNW
DEBRIS 4.4 05:25:49 56° NNW 05:26:07 57° N 05:39:00 10° ENE
Cosmos 1980 Rocket 4.1 05:24:57 10° N 05:29:11 21° NE 05:29:28 21° NE
ATLAS 2AS CENTAUR R/B 3.3 05:31:52 47° NE 05:31:52 47° NE 05:36:37 10° NE
SJ 16-02 4.0 05:34:45 10° NW 05:35:37 15° NW 05:35:37 15° NW
Cosmos 2082 Rocket 4.3 06:04:49 17° ENE 06:04:49 17° ENE 06:06:39 10° NE
Cosmos 1833 Rocket 3.8 06:04:58 40° N 06:04:58 40° N 06:08:33 10° NNE
CZ-2C R/B 4.4 06:16:19 10° NNE 06:19:30 38° NNE 06:19:30 38° NNE
ACS3 Solar Sail 3.3 06:25:13 10° NNE 06:29:12 27° ENE 06:29:12 27° ENE
CZ-2C R/B 3.8 06:34:42 41° N 06:34:42 41° N 06:38:08 10° NNW
CZ-4C R/B 4.1 06:36:45 17° NE 06:36:45 17° NE 06:38:05 10° NE
ATLAS 3B R/B 2.9 06:43:34 10° NW 06:50:58 78° N 06:50:58 78° N
Cosmos 1697 Rocket 4.4 06:47:51 10° NW 06:50:10 24° NW 06:50:10 24° NW
Cosmos 1980 Rocket 3.5 07:08:03 10° NNW 07:11:11 34° NW 07:11:11 34° NW
USA 229 DEB 4.4 07:08:27 10° NW 07:14:20 51° WNW 07:14:20 51° WNW
USA 229 4.4 07:08:30 10° NW 07:14:27 52° WNW 07:14:27 52° WNW
COSMOS 2406 4.2 07:20:34 41° ENE 07:20:34 41° ENE 07:24:46 10° NE
ATLAS 2AS CENTAUR R/B 4.1 07:19:13 26° WNW 07:21:15 30° NW 07:27:10 10° NNE
Cosmos 2369 4.4 07:19:58 10° NNW 07:24:05 49° NNW 07:24:05 49° NNW
Cosmos 909 Rocket 4.2 07:28:36 69° N 07:28:36 69° N 07:34:19 10° NNE
Cosmos 1634 Rocket 4.1 07:34:32 71° NNE 07:34:32 71° NNE 07:40:03 10° N
Cosmos 2360 Rocket 4.2 07:35:51 10° N 07:40:28 25° NE 07:45:03 10° ESE
Cosmos 2333 Rocket 3.3 07:37:32 10° NNW 07:42:51 40° ENE 07:44:45 31° E
Cosmos 1607 4.0 07:43:44 73° NNE 07:43:44 73° NNE 07:49:23 10° NNE
Cosmos 2082 Rocket 2.9 07:46:37 47° NNW 07:46:37 47° NNW 07:51:25 10° NNE
ADEOS Rocket 4.2 07:40:09 10° NNE 07:47:29 47° E 07:49:37 39° SE
Meteor 2-2 Rocket 4.4 07:54:10 67° N 07:54:10 67° N 07:59:01 10° N
Resurs 1-4 Rocket 4.1 07:51:20 10° NE 07:55:08 20° E 07:56:27 18° ESE
Cosmos 2322 Rocket 3.7 07:51:05 10° N 07:56:10 33° NE 08:01:14 10° ESE
NPP 4.1 07:51:02 10° NNE 07:55:59 55° E 07:55:59 55° E
USA 281 3.3 07:58:47 50° SE 08:00:35 74° ENE 08:07:09 10° NNW
Cosmos 2279 Rocket 3.8 08:02:10 87° NW 08:02:10 87° NW 08:08:23 10° N
H-2A R/B 4.3 08:04:16 10° NE 08:07:35 17° E 08:09:58 13° ESE
Cosmos 2219 Rocket 4.2 08:04:58 10° N 08:09:37 26° NE 08:14:15 10° ESE
SL-16 R/B 2.2 08:05:55 10° NNW 08:11:37 76° ENE 08:11:56 74° E
ACS3 Solar Sail 2.2 08:07:11 10° N 08:12:45 46° WNW 08:12:45 46° WNW
Cosmos 1812 Rocket 4.5 08:17:33 44° ENE 08:17:33 44° ENE 08:21:06 10° NNE
Cosmos 2180 Rocket 4.3 08:21:04 77° SSW 08:21:36 89° WNW 08:27:48 10° N
Meteor 1-14 Rocket 4.3 08:16:05 10° N 08:21:49 74° E 08:22:36 63° SE
CZ-4C R/B 3.4 08:21:39 25° NW 08:21:56 25° NW 08:26:21 10° NNE
Cosmos 2142 Rocket 4.4 08:23:01 72° SSW 08:23:42 82° W 08:30:06 10° N
NOSS 3-3 (A) 3.8 08:23:44 62° NW 08:23:46 62° NW 08:29:46 10° NNE
Gbstr 26 Del rocket 4.2 08:25:36 34° NNE 08:25:36 34° NNE 08:28:51 10° E
H-2A R/B 4.3 08:26:13 20° E 08:27:13 22° ENE 08:30:04 10° NNE
Cosmos 1975 4.3 08:25:34 10° N 08:27:36 31° N 08:27:36 31° N
Cosmos 2266 Rocket 3.8 08:29:27 10° N 08:35:36 85° E 08:37:12 52° SSE
COSMOS 2441 4.3 08:31:33 10° NNE 08:36:20 79° ESE 08:36:21 79° ESE
Meteor 2-6 Rocket 4.4 08:37:50 56° W 08:38:00 57° WNW 08:43:48 10° N
MOZ.5/SAFIR/RUBIN 5/SL-8 3.8 08:39:05 74° ESE 08:39:21 77° ENE 08:44:01 10° N
IDEFIX/ARIANE 42P 3.0 08:35:22 10° N 08:40:08 45° WNW 08:40:08 45° WNW
NOSS 3-3 (C) 3.8 08:40:11 54° WNW 08:40:45 57° NW 08:46:47 10° NNE
Envisat 3.4 08:35:50 10° NNE 08:40:49 55° E 08:41:54 46° SE
ATLAS 3B R/B 4.5 08:35:42 10° WNW 08:38:09 17° WNW 08:38:09 17° WNW
USA 267 3.2 08:35:04 10° NE 08:41:40 82° SE 08:43:24 53° SW
Iridium 4 Rocket 3.5 08:41:06 57° SE 08:41:44 64° E 08:46:40 10° N
ALOS 2.9 08:46:09 10° NNE 08:50:34 49° E 08:51:38 40° SE
Cosmos 1655 Rocket 4.5 08:46:05 10° N 08:52:13 58° E 08:58:05 11° SSE
Cosmos 990 Rocket 4.0 08:47:21 10° NNW 08:52:31 77° ENE 08:55:11 29° SSE
Meteor 2-20 4.3 08:51:01 50° SSW 08:52:44 85° W 08:58:55 10° N
Cosmos 1763 Rocket 3.4 08:52:53 64° WSW 08:53:27 70° WNW 08:58:44 10° NNE
Meteor 1-27 Rocket 4.1 08:53:08 34° SSE 08:55:42 65° E 09:01:35 10° NNE
ADEOS II 2.9 08:52:02 10° NNE 08:57:03 45° E 08:59:43 25° SSE
BREEZE-M R/B 4.3 08:55:25 10° WNW 09:01:06 90° NE 09:10:12 10° ESE
COSMOS 2406 4.4 09:02:35 26° WNW 09:03:45 27° NW 09:08:38 10° N
NOSS 3-4 (A) 4.4 08:58:01 10° NNW 09:04:45 61° NE 09:12:40 10° SE
NOSS 3-4 (C) 4.4 08:58:33 10° NNW 09:05:18 60° NE 09:13:13 10° SE
CZ-2D R/B 2.1 09:02:09 10° NNE 09:07:27 77° ESE 09:09:34 38° S
Cosmos 2221 3.6 09:09:11 30° NW 09:09:11 30° NW 09:12:11 10° N
ATLAS 5 CENTAUR R/B 4.0 09:05:36 25° S 09:08:36 47° ESE 09:23:51 10° NE
H-2A R/B 4.5 09:10:03 10° NE 09:12:39 17° E 09:15:13 10° SE
Cosmos 1271 Rocket 4.2 09:14:36 22° NW 09:14:36 22° NW 09:16:24 10° NNW
Cosmos 1354 Rocket 3.9 09:11:13 10° NNW 09:16:27 65° WSW 09:18:58 30° S
USA 234 3.8 09:10:40 10° ESE 09:17:04 61° NNE 09:23:30 10° NW
Cosmos 1503 Rocket 4.3 09:12:36 10° NNW 09:17:32 43° WSW 09:17:41 42° WSW
USA 290 3.3 09:20:16 35° NNW 09:20:16 35° NNW 09:22:36 10° N
SL-16 R/B 4.0 09:13:59 10° SE 09:19:39 38° ENE 09:25:20 10° N
SL-4 R/B 1.7 09:19:24 38° NW 09:20:48 89° NE 09:24:34 10° SE
Cosmos 540 Rocket 3.9 09:20:06 39° W 09:21:11 44° WNW 09:26:08 10° N
Cosmos 2360 Rocket 2.2 09:19:15 10° NNW 09:24:47 56° WSW 09:29:01 17° S
Cosmos 1766 Rocket 3.4 09:22:26 10° N 09:26:48 88° E 09:29:25 23° S
Cosmos 2333 Rocket 3.0 09:22:04 10° NW 09:26:40 31° W 09:26:40 31° W
Cosmos 468 Rocket 4.0 09:26:46 38° SW 09:28:46 69° WNW 09:34:04 10° NNE
Meteor 2-10 Rocket 4.4 09:24:41 10° N 09:29:41 50° ENE 09:34:50 10° SSE
BREEZE-M DEB (TANK) 3.8 09:19:00 10° WNW 09:31:03 61° NNE 09:34:37 10° E
ADEOS Rocket 4.1 09:25:45 10° N 09:32:44 41° WNW 09:36:33 25° WSW
Resurs 1-4 Rocket 2.3 09:30:01 10° N 09:35:12 55° WNW 09:37:29 31° SW
CZ-3 Stage 3 3.8 09:33:58 27° SW 09:38:04 44° SSE 09:59:45 10° ESE
CRYOSAT 2 4.3 09:34:39 12° S 09:39:11 87° E 09:44:06 10° N
Cosmos 2322 Rocket 2.6 09:35:03 10° NW 09:40:12 38° WSW 09:42:59 23° SSW
ISS -3.9 09:41:04 53° SW 09:41:45 86° SSE 09:45:09 10° ENE
SL-19 R/B 4.4 09:37:55 10° NNE 09:43:36 70° WNW 09:47:39 22° SSW
Cosmos 1553 Rocket 4.1 09:38:05 10° S 09:44:10 79° E 09:50:28 10° N
USA 281 4.3 09:45:37 21° W 09:45:37 21° W 09:50:23 10° NW
H-2A R/B 2.1 09:42:09 10° N 09:47:14 62° WNW 09:50:28 23° SW
JB-3 4.1 09:50:02 22° S 09:52:13 58° W 09:55:47 10° NNW
DNEPR-1 R/B 4.3 09:47:43 10° NW 09:53:17 69° WSW 10:00:05 10° SSE
Cosmos 1461 2.7 09:51:56 33° WSW 09:53:22 60° NW 09:57:04 10° NNE
Cosmos 2219 Rocket 2.3 09:48:22 10° NNW 09:53:50 53° WSW 09:59:17 10° S
SL-16 R/B 3.9 09:51:48 10° WNW 09:53:41 14° W 09:53:41 14° W
H-2A R/B 3.3 10:01:10 23° W 10:01:10 23° W 10:04:01 10° NW
ARGOS 3.2 09:56:44 10° NNE 10:02:09 82° ESE 10:07:30 10° SSW
METEOR-M 4.2 09:58:33 10° N 10:03:49 65° WNW 10:08:23 14° SSW
Cosmos 2084 Rocket 4.0 10:01:40 10° NW 10:05:27 33° WSW 10:09:16 10° S
Meteor 2-11 Rocket 4.5 10:00:08 10° NNW 10:06:10 60° W 10:12:11 10° S
Cosmos 372 Rocket 4.1 10:05:41 10° NNW 10:10:38 48° WSW 10:15:31 10° S
Cosmos 1238 Rocket 4.1 10:11:24 13° WNW 10:11:24 13° WNW 10:12:50 10° NW
Gbstr 26 Del rocket 2.9 10:08:08 10° WNW 10:11:42 44° SW 10:15:22 10° SSE
Cosmos 1151 Rocket 3.3 10:09:18 10° S 10:13:28 69° E 10:17:41 10° NNE
Cosmos 2322 3.8 10:09:24 10° NNW 10:15:09 86° ENE 10:20:50 10° SSE
USA 276 1.1 10:15:36 25° NW 10:16:19 54° NNE 10:18:05 10° ESE
Cosmos 1745 Rocket 4.3 10:10:25 10° N 10:16:35 72° E 10:22:41 10° SSE
Cosmos 1842 Rocket 4.1 10:14:11 17° SW 10:17:01 37° WNW 10:21:03 10° N
Cosmos 1500 Rocket 3.9 10:15:47 10° N 10:20:11 68° E 10:24:35 10° SSE
AQUA 3.8 10:16:06 10° N 10:20:45 66° WNW 10:25:22 10° SSW
Cosmos 1758 3.0 10:19:44 10° N 10:23:23 88° W 10:27:00 10° S
Aureole 1 Rocket 4.3 10:19:41 10° NW 10:23:31 27° WSW 10:28:04 10° SSW
USA 267 4.2 10:18:19 10° NE 10:24:18 39° NNW 10:30:18 10° W
ALOS 3.8 10:24:01 10° NNW 10:27:06 18° WNW 10:29:40 12° WSW
Sich 1 3.2 10:25:46 10° NNW 10:29:45 46° W 10:33:42 10° SSW
TSX-5 3.9 10:30:52 10° NNW 10:33:55 56° ENE 10:36:59 10° SE
Okean 3 Rocket 3.9 10:29:50 10° NNW 10:34:05 46° W 10:38:21 10° SSW
ADEOS II 3.3 10:32:09 10° N 10:36:19 25° WNW 10:40:27 10° WSW
Cosmos 1417 Rocket 4.5 10:30:44 10° SSW 10:36:54 76° W 10:43:03 10° N
Cosmos 858 Rocket 4.4 10:34:57 10° NNW 10:40:07 72° WSW 10:45:15 10° S
Cosmos 1743 Rocket 3.8 10:37:00 10° N 10:41:23 74° E 10:45:43 10° SSE
Cosmos 1805 Rocket 3.5 10:37:30 10° NNW 10:41:52 65° W 10:46:10 10° S
Cosmos 2297 Rocket 2.3 10:37:20 10° SSW 10:42:58 82° ESE 10:48:39 10° NNE
Cosmos 841 Rocket 4.4 10:38:30 10° SW 10:43:04 32° WNW 10:47:42 10° N
NOSS 0 Rocket 4.0 10:37:44 10° NNW 10:43:57 86° WSW 10:50:07 10° SSE
CZ-2D R/B 3.9 10:43:45 10° NNW 10:46:46 16° WNW 10:49:49 10° W
H-2A R/B 2.5 10:44:22 10° N 10:48:05 38° WNW 10:51:45 10° SW
Cosmos 1340 Rocket 2.9 10:48:20 10° N 10:52:06 76° E 10:55:52 10° SSE
Cosmos 1898 Rocket 4.4 10:48:57 10° NW 10:53:14 27° W 10:57:32 10° SSW
COSMOS 2428 2.9 10:48:47 10° NNW 10:54:19 53° WSW 10:59:48 10° S
S3M 4.1 10:50:47 10° SSW 10:57:04 63° W 11:03:19 10° N
CZ-3 R/B 3.6 10:48:36 10° W 11:08:11 36° SSW 11:15:10 10° SE
